Location: Croisilles
(50.1998°N, 2.8793°E)
Time: 03:10:40
(UTC+00:00)

RESURS DK-1 - Pass Details

Date: 21 January 2021
Orbit: 557 x 560 km, 69.9° (Epoch: 24 February)

Event Time Altitude Azimuth Distance (km) Brightness Sun altitude
Rises 16:58:25 0° 214° (SSW) 2,733 7.0 -5.7°
Reaches altitude 10° 17:00:36 10° 215° (SW) 1,842 6.1 -6.0°
Maximum altitude 17:04:43 76° 301° (WNW) 582 2.5 -6.6°
Drops below altitude 10° 17:08:52 10° 28° (NNE) 1,854 4.6 -7.3°
Enters shadow 17:10:13 - 30° (NNE) 2,401 5.1 -7.5°
